[[{"header":{"parameterUnit":"m.s-1","parameterCategory":1,"la1":30.2991,"la2":30.254,"lo1":-89.0895,"lo2":-89.0444,"dy":0.0017,"dx":0.0017,"nx":28,"ny":28,"refTime":"2024-03-16T03:00:00:Z","depth":0,"parameterNumber":2,"parameterNumberName":"U-component_of_WINDS"},"data":[0,0,0,0,0,0,0,0,0,0,0,0,0,0,0,0,0,0,0,0,0,0,0,0,0,0,0,0,0,0,0,0,0,0,0,0,0,0,0,0,0,0,0,0,0,0,0,0,0,0,0,0,0,0,0,0,0,0,0.2349,0.235,0,0.2447,0.2448,0.2449,0.2514,0.2514,0.2515,0.2515,0.2614,0.2616,0.2618,0,0,0,0,0,0,0,0,0,0,0,0,0,0.2216,0.2219,0.2349,0.2351,0.2352,0.2447,0.2448,0.2449,0.2514,0.2514,0.2515,0.2515,0.2613,0.2616,0.2618,0,0,0,0,0,0,0,0,0,0,0,0,0,0.229,0.2219,0.2349,0.2395,0.24,0.2446,0.2448,0.245,0.2514,0.2514,0.2515,0.2516,0.2612,0.2615,0.2619,0.2626,0,0,0.2629,0.263,0,0,0,0,0,0,0,0,0.2286,0.2295,0.2387,0.2392,0.2398,0.2469,0.2438,0.2509,0.2513,0.2471,0.2515,0.2516,0.2565,0.2572,0.2589,0.2631,0.2635,0.2629,0.2631,0.2633,0.2634,0,0,0,0,0,0,0,0.2281,0.2291,0.2388,0.2389,0.2395,0.241,0.2422,0.2451,0.2513,0.2474,0.2479,0.249,0.2568,0.2586,0.2592,0.2636,0.2629,0.2632,0.2634,0.2635,0.2687,0.2687,0,0,0,0,0,0,0.2268,0.2286,0.2385,0.2391,0.2342,0.2412,0.2425,0.2445,0.2513,0.2524,0.2489,0.2493,0.258,0.2588,0.2596,0.2608,0.2633,0.2636,0.2638,0.2688,0.2687,0.2687,0,0,0,0,0,0,0.2265,0.2277,0.2381,0.234,0.2354,0.2414,0.2437,0.2447,0.2465,0.2524,0.2535,0.2496,0.258,0.2591,0.2618,0.2612,0.2637,0.264,0.2689,0.2688,0.2687,0.2632,0,0,0,0,0,0,0.2261,0.2275,0.2279,0.234,0.2356,0.2402,0.2436,0.2448,0.2471,0.2476,0.2533,0.2544,0.2582,0.2612,0.2621,0.2617,0.2643,0.269,0.2688,0.2687,0.2635,0.2629,0.2625,0,0,0,0,0,0.2256,0.226,0.2279,0.2291,0.2363,0.2401,0.2411,0.2455,0.247,0.2474,0.2512,0.2542,0.2611,0.2615,0.2625,0.2622,0.269,0.2689,0.2687,0.2637,0.263,0.2625,0,0,0,0,0,0,0.2197,0.2269,0.2291,0.2314,0.2351,0.2412,0.2419,0.2447,0.2481,0.2484,0.2537,0.255,0.2571,0.2599,0.2602,0.2632,0.2654,0.2655,0.2612,0.2607,0.2602,0.2594,0.2646,0,0,0,0,0,0.2187,0.2213,0.2274,0.2288,0.2306,0.2359,0.2378,0.2408,0.2449,0.2465,0.2505,0.2542,0.2572,0.2591,0.2623,0.2639,0.2652,0.2642,0.2637,0.2633,0.2632,0.2642,0.2638,0.2682,0.2682,0.2682,0,0,0.2165,0.2208,0.2221,0.2277,0.231,0.2335,0.2372,0.2397,0.2416,0.2468,0.2496,0.2526,0.2572,0.2593,0.2605,0.2618,0.2623,0.2631,0.2627,0.2629,0.264,0.2636,0.2632,0.2681,0.2681,0.2682,0,0,0.2139,0.2175,0.219,0.2222,0.227,0.2305,0.2309,0.2366,0.2388,0.2416,0.2456,0.2479,0.253,0.256,0.2583,0.2567,0.2595,0.2575,0.2549,0.2558,0.2554,0.2552,0.2545,0.2542,0.2575,0.2575,0.2575,0,0.2107,0.2147,0.2194,0.2217,0.224,0.2289,0.2304,0.2332,0.2388,0.2403,0.2416,0.2481,0.2515,0.2543,0.2539,0.2556,0.2561,0.2569,0.2551,0.2549,0.2547,0.2541,0.2538,0.2572,0.2572,0.2573,0.2573,0,0.2103,0.213,0.2137,0.2189,0.2213,0.2232,0.2282,0.23,0.2328,0.2361,0.2389,0.2432,0.2472,0.2481,0.2509,0.2513,0.2519,0.2541,0.2565,0.2539,0.2534,0.2532,0.2568,0.2569,0.257,0.257,0,0,0.2043,0.2121,0.2123,0.2147,0.2203,0.2225,0.2245,0.2284,0.2298,0.2335,0.2353,0.2394,0.2415,0.244,0.2472,0.2479,0.2462,0.2501,0.2502,0.2491,0.2467,0.2449,0.2446,0.2481,0.2481,0.2481,0.2463,0,0.2024,0.2064,0.2107,0.2131,0.2156,0.2202,0.222,0.2256,0.2287,0.2312,0.2347,0.2375,0.2401,0.2416,0.2425,0.2462,0.2458,0.2464,0.2497,0.2498,0.2483,0.2444,0.2425,0.2406,0.2462,0.2461,0.2461,0,0.2008,0.2043,0.2069,0.2123,0.2134,0.215,0.2188,0.2212,0.2253,0.2275,0.2303,0.2336,0.2359,0.238,0.2411,0.2415,0.2431,0.2451,0.2451,0.2455,0.2477,0.2446,0.2402,0.2398,0.2459,0.2459,0.2459,0,0.196,0.2013,0.2035,0.2054,0.2118,0.2127,0.2153,0.2196,0.2216,0.225,0.2263,0.2299,0.2318,0.2345,0.2387,0.2398,0.2413,0.2438,0.2431,0.243,0.2431,0.243,0.2388,0.2443,0.2443,0.2443,0.2443,0,0.1934,0.1948,0.2014,0.2028,0.2044,0.2093,0.2108,0.2139,0.2176,0.2195,0.2238,0.2255,0.231,0.2334,0.2367,0.2387,0.2396,0.2414,0.2422,0.2409,0.2407,0.242,0.2422,0.2443,0.2443,0.2443,0.2443,0,0.1882,0.1927,0.1954,0.2012,0.2027,0.2036,0.2085,0.2099,0.2133,0.2157,0.2166,0.2218,0.2248,0.2293,0.2336,0.2358,0.2373,0.2387,0.2358,0.2363,0.2353,0.2353,0.2317,0.2314,0.2372,0.2371,0.2371,0,0.1862,0.1874,0.1933,0.1949,0.1974,0.2,0.2021,0.207,0.2089,0.2137,0.2145,0.2178,0.2207,0.2253,0.2294,0.2327,0.2342,0.2327,0.2347,0.2334,0.234,0.2339,0.2339,0.2322,0.2321,0.2321,0.232,0,0.1822,0.1843,0.1872,0.1908,0.1932,0.1963,0.1996,0.2007,0.2062,0.2082,0.2113,0.2135,0.2179,0.2211,0.225,0.2276,0.2307,0.2313,0.2313,0.23,0.2282,0.229,0.2344,0.2314,0.2314,0.2315,0.2315,0.2315,0.1785,0.1797,0.184,0.187,0.19,0.1929,0.1945,0.1981,0.2008,0.2047,0.2074,0.2103,0.2143,0.2198,0.2223,0.2246,0.2259,0.2259,0.2259,0.2258,0.2253,0.2279,0.2253,0.2254,0.2254,0.2254,0.2254,0,0.1745,0.1775,0.1802,0.1847,0.187,0.1898,0.1935,0.1952,0.1978,0.2013,0.204,0.2075,0.2106,0.215,0.2184,0.2193,0.2208,0.2201,0.22,0.2205,0.224,0.2236,0.2188,0.2188,0.2188,0.2188,0.2188,0.2188,0.1727,0.1749,0.1775,0.1811,0.1841,0.187,0.1889,0.1916,0.1944,0.1981,0.2007,0.2036,0.2074,0.2111,0.214,0.2152,0.2162,0.2149,0.2165,0.2197,0.2203,0.2209,0.2205,0.2151,0.2151,0.2129,0.2128,0.2128]},{"header":{"parameterUnit":"m.s-1","parameterCategory":1,"la1":30.2991,"la2":30.254,"lo1":-89.0895,"lo2":-89.0444,"dy":0.0017,"dx":0.0017,"nx":28,"ny":28,"refTime":"2024-03-16T03:00:00:Z","depth":0,"parameterNumber":3,"parameterNumberName":"V-component_of_WINDS"},"data":[0,0,0,0,0,0,0,0,0,0,0,0,0,0,0,0,0,0,0,0,0,0,0,0,0,0,0,0,0,0,0,0,0,0,0,0,0,0,0,0,0,0,0,0,0,0,0,0,0,0,0,0,0,0,0,0,0,0,2.2572,2.2572,0,2.2562,2.2562,2.2562,2.2536,2.2536,2.2535,2.2535,2.2525,2.2525,2.2525,0,0,0,0,0,0,0,0,0,0,0,0,0,2.257,2.257,2.2572,2.2572,2.2572,2.2562,2.2562,2.2562,2.2537,2.2536,2.2535,2.2535,2.2524,2.2525,2.2525,0,0,0,0,0,0,0,0,0,0,0,0,0,2.2566,2.257,2.2572,2.2558,2.2557,2.2562,2.2562,2.2562,2.2537,2.2536,2.2535,2.2534,2.2524,2.2525,2.2525,2.2544,0,0,2.2526,2.2526,0,0,0,0,0,0,0,0,2.2567,2.2566,2.256,2.2559,2.2558,2.255,2.2557,2.2556,2.2537,2.2544,2.2535,2.2534,2.2534,2.2533,2.2533,2.2543,2.2543,2.2526,2.2526,2.2526,2.2527,0,0,0,0,0,0,0,2.2567,2.2567,2.2568,2.256,2.2559,2.2552,2.2551,2.2557,2.2544,2.2544,2.2542,2.2541,2.2533,2.2533,2.2533,2.2543,2.2526,2.2526,2.2527,2.2527,2.2568,2.2569,0,0,0,0,0,0,2.2569,2.2567,2.2569,2.2568,2.256,2.2553,2.2552,2.2553,2.2544,2.2541,2.2542,2.254,2.2533,2.2532,2.2532,2.2554,2.2526,2.2527,2.2527,2.2567,2.2568,2.2569,0,0,0,0,0,0,2.2569,2.2569,2.2569,2.2567,2.2567,2.2554,2.2556,2.2553,2.2553,2.2542,2.2539,2.2544,2.2532,2.2532,2.2541,2.2553,2.2527,2.2527,2.2566,2.2567,2.2569,2.2596,0,0,0,0,0,0,2.2569,2.257,2.2576,2.2567,2.2567,2.2578,2.2557,2.2554,2.2554,2.2552,2.2544,2.2542,2.2531,2.2541,2.2541,2.2553,2.2528,2.2565,2.2567,2.2568,2.2594,2.2599,2.2602,0,0,0,0,0,2.2569,2.2584,2.2577,2.2577,2.2575,2.2579,2.2579,2.2566,2.2555,2.2562,2.2555,2.2542,2.2552,2.2542,2.2543,2.2554,2.2564,2.2566,2.2568,2.2593,2.2598,2.2602,0,0,0,0,0,0,2.2595,2.2583,2.2574,2.2587,2.2584,2.2575,2.2583,2.2572,2.2572,2.257,2.2554,2.2553,2.2565,2.256,2.255,2.2572,2.2556,2.2558,2.2574,2.2579,2.2583,2.2583,2.2528,0,0,0,0,0,2.2602,2.2606,2.2596,2.2608,2.2607,2.2595,2.2597,2.2587,2.2584,2.2582,2.2576,2.2573,2.2575,2.2577,2.2578,2.2594,2.2592,2.2602,2.2606,2.2609,2.2611,2.262,2.2624,2.2576,2.2576,2.2576,0,0,2.2617,2.2611,2.2615,2.2613,2.261,2.2615,2.2594,2.26,2.2604,2.2583,2.2592,2.2587,2.2582,2.2595,2.26,2.2592,2.2625,2.2612,2.2615,2.2615,2.2622,2.2627,2.2631,2.2577,2.2577,2.2577,0,0,2.2647,2.2642,2.2653,2.265,2.2645,2.2637,2.264,2.2632,2.2628,2.2636,2.2621,2.2625,2.2629,2.2627,2.2626,2.2656,2.2644,2.2657,2.2677,2.2685,2.2689,2.2692,2.2703,2.2707,2.2659,2.2659,2.2659,0,2.2666,2.2672,2.2659,2.2666,2.2666,2.2648,2.2658,2.2656,2.2652,2.2653,2.2643,2.2649,2.2645,2.2657,2.2664,2.2664,2.2667,2.2658,2.269,2.2693,2.2696,2.2706,2.271,2.2661,2.266,2.266,2.266,0,2.2696,2.2701,2.271,2.2706,2.2707,2.2716,2.2705,2.2707,2.2698,2.2692,2.2701,2.2695,2.2695,2.2698,2.2689,2.2709,2.2704,2.2692,2.2676,2.2702,2.2711,2.2715,2.2663,2.2662,2.2662,2.2661,0,0,2.2741,2.2731,2.2734,2.2733,2.2727,2.273,2.2738,2.2739,2.2742,2.274,2.2746,2.2751,2.274,2.274,2.273,2.2738,2.2762,2.2725,2.2725,2.2732,2.2784,2.2793,2.2797,2.2754,2.2755,2.2756,2.2784,0,2.2769,2.2782,2.2771,2.2786,2.279,2.2774,2.2781,2.2778,2.2772,2.2775,2.2769,2.2772,2.2758,2.2758,2.2764,2.2758,2.2772,2.2755,2.276,2.2761,2.2762,2.2802,2.2811,2.2839,2.2788,2.2789,2.2789,0,2.2803,2.2803,2.2819,2.2812,2.2814,2.282,2.282,2.2823,2.282,2.2815,2.2815,2.2804,2.2811,2.2796,2.2806,2.2795,2.2796,2.2793,2.2794,2.2794,2.2776,2.2803,2.2847,2.2851,2.2795,2.2794,2.2794,0,2.2834,2.2838,2.2848,2.2848,2.284,2.2845,2.2842,2.2838,2.2839,2.2839,2.284,2.2841,2.2841,2.2842,2.2832,2.2821,2.2844,2.2827,2.2841,2.2841,2.2846,2.2846,2.2891,2.2847,2.2847,2.2847,2.2847,0,2.2867,2.2877,2.2862,2.2869,2.288,2.2867,2.2879,2.2874,2.2871,2.2876,2.2862,2.2867,2.2853,2.2857,2.2849,2.2859,2.2859,2.2856,2.2854,2.2857,2.2858,2.2858,2.2855,2.2848,2.2848,2.2847,2.2847,0,2.2903,2.2894,2.2904,2.2896,2.2895,2.2903,2.2897,2.2903,2.2896,2.2903,2.2904,2.2894,2.2897,2.2887,2.2889,2.2884,2.2899,2.2893,2.29,2.2898,2.2912,2.2911,2.2959,2.2965,2.2918,2.2918,2.2918,0,2.2925,2.2932,2.2926,2.2928,2.2926,2.293,2.2932,2.292,2.2922,2.2919,2.2925,2.2928,2.2929,2.2936,2.2929,2.2931,2.2925,2.2942,2.2926,2.2929,2.2926,2.2925,2.2926,2.2945,2.2946,2.2947,2.2947,0,2.2963,2.2958,2.2961,2.2962,2.2964,2.2964,2.2964,2.2967,2.2954,2.2957,2.2961,2.2962,2.2965,2.2968,2.2968,2.2965,2.2954,2.2952,2.2955,2.2959,2.2963,2.2961,2.2909,2.2951,2.2951,2.295,2.295,2.295,2.2993,2.2999,2.2996,2.2999,2.2997,2.2997,2.3002,2.2997,2.3,2.3001,2.2994,2.2999,2.2996,2.2996,2.2994,2.2998,2.2991,2.2995,2.2997,2.2998,2.3,2.2962,2.2998,2.2998,2.2998,2.2998,2.2998,0,2.3031,2.3028,2.3031,2.3031,2.3034,2.3023,2.3022,2.3025,2.303,2.3029,2.3031,2.3035,2.3039,2.3032,2.3034,2.3039,2.3034,2.304,2.3039,2.3039,2.3007,2.3004,2.3044,2.3044,2.3044,2.3044,2.3044,2.3044,2.3051,2.3061,2.3056,2.3065,2.3062,2.3068,2.3068,2.3068,2.3067,2.3073,2.3075,2.3071,2.3067,2.3069,2.3072,2.307,2.3071,2.3079,2.3075,2.3045,2.3041,2.3037,2.3034,2.3079,2.3079,2.3107,2.3107,2.3107]}]]